Wind_Speed
63 67 68 68 65 62 60 59 58 57 57 58 59 60 61 61 61 60 57 59 59 59 58 58 57 56 57 59 59 58 60 61 60 62 62 63 65 66 68 67 67 71 71 70 73 77 81 76 72 66 61 61 58 55
56 56 63 67 68 67 65 63 61 60 59 58 58 58 57 56 56 57 57 56 57 57 56 56 55 57 57 57 58 60 60 60 63 64 64 66 69 69 72 73 68 71 65 71 73 75 75 64 58 56 56 56 54 54
57 55 53 56 62 66 67 67 66 64 62 61 60 59 58 58 58 59 59 58 59 60 60 57 54 55 58 60 63 64 62 61 64 66 69 70 73 71 73 73 69 68 68 72 71 67 58 52 49 50 51 52 52 52
57 55 54 53 52 55 60 63 64 65 65 65 63 62 60 60 60 61 62 61 61 63 67 61 61 60 60 63 64 64 64 66 68 68 69 71 74 73 70 69 70 69 68 64 62 55 49 47 48 49 50 50 49 48
57 55 53 51 51 50 50 51 53 56 58 60 61 61 61 61 62 62 63 64 64 66 70 67 66 64 65 68 67 66 66 66 66 66 68 70 69 68 67 66 69 60 58 56 56 48 49 51 52 52 53 51 50 50
54 53 51 50 49 48 49 48 47 47 47 48 50 53 55 57 58 60 63 65 64 61 64 69 72 69 68 66 66 66 65 65 66 66 66 65 62 62 63 64 60 52 48 45 47 47 51 55 53 49 50 50 50 50
53 52 50 49 47 46 45 45 44 44 44 45 45 47 48 50 52 56 57 54 52 58 60 61 63 67 66 64 62 62 61 61 60 58 58 57 57 53 55 58 52 42 41 42 48 50 50 48 51 49 49 51 52 51
53 52 51 48 47 45 45 43 43 43 43 43 44 44 45 46 49 51 51 48 46 57 54 55 57 55 53 56 56 55 53 55 56 55 54 52 49 49 52 51 44 41 35 38 42 43 48 51 51 50 50 52 53 54
53 52 51 49 48 47 47 45 44 44 44 43 43 44 46 48 49 48 48 50 52 54 54 56 54 56 52 51 51 52 52 54 57 55 51 52 51 53 45 43 43 41 44 45 46 48 48 48 49 50 52 54 53 53
52 50 51 51 50 50 49 48 47 46 46 46 46 47 49 45 44 47 49 48 45 51 59 62 58 62 58 58 57 56 56 58 59 54 52 54 51 42 38 41 41 42 43 46 47 48 49 49 51 53 55 54 54 56
51 50 50 51 51 50 50 50 49 48 49 49 49 48 46 45 44 46 49 52 52 53 54 54 51 53 55 59 62 63 63 58 60 54 51 54 47 40 45 47 47 44 45 46 48 49 49 53 55 57 55 53 55 57
46 48 50 51 52 52 51 51 50 50 48 49 49 48 47 48 48 42 46 50 53 52 54 52 47 49 52 55 57 58 57 56 59 56 60 60 48 51 51 54 50 47 45 47 50 51 53 53 50 51 53 55 55 54
45 45 46 47 49 48 48 49 50 51 51 51 52 51 51 51 50 50 48 55 56 55 53 51 47 44 49 51 53 53 52 53 60 61 60 56 54 49 50 50 50 49 48 48 48 47 49 51 53 55 54 54 51 49
44 44 43 43 44 44 44 45 46 48 51 52 51 52 54 56 57 56 54 51 50 49 47 48 49 48 49 48 52 56 62 62 61 63 60 53 48 48 49 50 49 47 46 46 45 47 48 50 53 53 56 49 49 51
40 42 42 42 43 43 44 43 44 47 49 50 51 55 57 54 55 53 53 54 54 52 47 47 45 45 46 50 54 54 54 55 57 57 53 49 46 45 51 50 50 49 48 45 48 48 49 54 54 48 47 50 54 58
40 44 46 47 49 49 49 50 51 50 51 54 54 53 55 54 52 51 50 49 50 49 48 48 49 47 52 53 55 57 57 60 58 53 51 53 47 47 49 50 52 52 51 49 52 45 42 42 46 49 53 56 60 64
29 31 34 36 39 40 42 44 46 50 52 55 55 53 50 49 48 45 45 45 47 52 55 52 52 53 57 58 56 56 53 50 53 54 46 47 48 50 52 52 51 49 49 53 47 43 45 45 48 53 58 63 65 62
29 31 33 35 37 39 40 41 43 46 50 51 50 48 48 47 48 44 38 39 43 49 52 57 57 60 58 54 51 52 52 48 46 43 46 48 49 52 52 48 47 51 54 55 47 47 49 53 56 60 64 63 58 56
21 23 25 27 29 32 35 38 41 44 45 43 43 46 47 47 47 54 46 36 33 33 33 39 37 41 45 47 48 48 46 43 43 45 48 50 51 47 48 50 54 56 61 50 49 51 55 57 61 64 57 52 51 49
17 20 22 23 25 28 33 33 36 41 43 41 46 42 40 41 44 49 54 58 46 41 36 41 47 49 47 46 48 47 44 46 48 51 55 49 48 50 52 54 54 62 54 49 48 51 54 60 61 52 45 43 36 30
17 19 20 21 22 24 29 34 38 44 45 47 48 43 38 41 43 42 35 38 54 49 56 52 48 49 51 50 49 48 51 48 42 45 46 50 54 54 52 53 62 54 48 48 51 55 59 55 48 39 35 26 22 15
18 18 19 20 20 22 24 30 33 35 38 41 43 48 51 49 44 41 39 37 44 55 46 45 44 48 49 51 52 49 47 45 48 49 51 54 53 55 57 57 51 48 49 53 56 58 50 43 33 28 21 16 10 6
15 16 17 17 17 17 15 19 24 24 20 22 23 24 26 27 23 26 37 41 42 42 41 42 42 44 47 49 49 49 51 51 52 50 50 50 51 43 41 44 47 50 53 55 51 44 37 28 23 17 13 10 8 7
12 13 15 14 12 9 11 16 21 25 18 13 17 16 12 10 13 17 20 22 31 30 30 28 30 32 33 34 37 40 40 38 36 39 40 35 37 42 46 49 53 54 49 44 37 29 23 19 15 13 12 11 10 10
9 10 12 11 10 6 5 7 15 22 23 21 17 13 11 12 13 11 11 12 13 15 18 20 17 16 19 22 22 23 24 25 27 30 34 39 42 48 51 48 46 41 33 27 22 18 15 14 13 13 13 13 13 13
7 7 9 12 13 10 8 7 7 11 15 18 18 16 16 16 17 16 14 13 14 16 19 22 23 23 23 24 26 27 29 30 34 37 39 43 42 40 36 28 20 15 12 12 12 12 12 13 14 14 15 15 16 17
7 7 8 9 11 13 15 15 13 12 15 18 23 22 21 21 20 19 20 20 20 21 22 24 25 27 28 29 31 33 36 37 38 36 37 34 27 21 17 13 11 9 9 9 10 11 12 13 14 15 16 17 18 19
8 9 11 10 10 10 12 13 16 18 19 18 18 18 20 20 20 23 24 26 28 29 30 32 33 33 33 33 31 28 26 27 27 23 18 15 13 12 12 12 12 12 12 12 13 14 15 16 17 18 19 20 22 23
7 8 9 10 12 13 13 13 12 13 14 17 21 24 26 27 28 28 29 30 28 25 22 20 20 22 24 25 24 21 17 16 15 14 14 14 14 14 15 16 17 18 19 19 20 20 21 21 22 23 25 26 27 28
4 5 7 8 9 10 11 11 12 12 12 12 13 14 15 16 16 16 16 17 18 19 20 20 19 18 17 16 14 14 15 16 17 17 19 20 21 22 23 24 25 26 26 27 28 28 29 30 30 32 33 35 36 37
4 5 6 6 7 8 10 11 12 13 13 13 13 14 14 14 14 15 15 16 16 16 17 17 17 15 14 14 14 16 18 19 20 23 25 27 29 30 31 32 33 33 33 33 33 34 34 35 36 36 37 37 38 38
8 8 8 8 8 8 9 9 11 12 13 14 16 17 17 18 20 20 21 19 18 19 19 19 20 20 21 22 23 25 26 27 29 30 31 32 34 35 35 34 33 33 34 34 35 35 36 36 36 37 38 39 41 42
14 13 13 12 12 12 12 12 13 13 13 14 14 15 17 18 21 23 24 24 24 25 25 26 27 28 29 30 31 31 33 33 34 35 35 35 35 36 37 38 38 39 39 40 40 42 43 44 45 47 48 49 50 51
Wind_Direction
248 246 248 248 249 249 248 247 248 248 248 249 252 254 255 255 256 257 258 258 258 258 258 259 260 261 262 262 262 263 263 265 267 267 269 271 272 274 276 277 280 279 281 286 285 284 284 290 291 288 290 289 289 288
251 250 248 247 247 249 250 251 251 250 250 251 251 251 252 255 257 258 257 259 261 260 261 260 260 261 262 264 265 264 264 266 266 270 273 274 275 276 278 279 280 280 284 284 283 284 289 293 289 289 290 291 290 289
250 250 251 250 248 247 248 249 251 252 253 253 254 255 255 255 257 258 259 258 259 260 259 259 263 262 261 263 264 266 267 270 271 271 273 276 277 279 279 279 279 281 283 282 282 285 285 284 285 290 288 287 289 290
247 248 248 249 250 250 249 248 249 250 252 253 254 254 255 256 257 258 259 260 259 261 260 258 256 257 258 260 263 265 267 269 272 274 275 275 277 280 279 281 278 284 285 288 285 283 286 286 288 288 286 288 291 291
244 245 246 247 248 249 249 249 249 249 250 251 252 253 254 255 256 257 258 259 260 261 264 261 260 259 260 262 264 266 268 270 271 272 273 275 276 278 279 277 278 288 287 282 282 286 288 292 290 291 291 291 290 291
239 242 244 245 246 247 248 249 249 249 250 251 252 252 252 252 253 254 256 256 259 260 262 267 264 260 261 264 265 267 270 270 270 272 275 275 278 277 277 277 283 287 284 283 283 285 284 283 286 288 287 289 291 290
232 235 237 240 242 244 246 246 247 248 248 249 250 251 251 251 251 252 255 261 261 260 259 261 264 263 262 264 266 267 269 271 271 275 275 280 280 279 279 278 290 292 288 288 284 279 279 283 282 284 285 286 288 291
232 230 232 234 236 238 239 241 244 246 247 249 249 249 248 247 248 252 256 249 246 253 251 254 259 263 265 266 268 269 267 268 272 277 279 281 281 279 274 286 291 287 281 274 276 279 282 284 284 285 286 288 291 293
232 231 231 231 233 234 236 237 239 241 244 246 248 248 248 248 252 257 255 251 248 246 247 250 253 259 262 267 266 267 267 270 273 274 278 281 279 276 290 288 283 281 277 276 272 277 279 279 283 284 288 292 294 292
232 232 232 233 234 235 237 239 240 242 243 245 246 248 250 251 253 250 246 242 244 247 245 247 252 253 258 262 266 264 265 268 271 276 277 277 281 285 286 289 285 283 282 280 279 278 278 278 282 287 293 293 291 292
231 232 233 234 236 237 238 239 240 242 244 246 248 249 252 252 252 251 248 247 246 239 244 252 257 260 259 258 260 263 266 270 274 279 277 281 283 285 294 295 290 284 281 281 281 283 283 287 290 294 294 290 290 292
234 235 236 238 239 240 241 241 242 244 246 249 249 249 251 251 250 241 243 245 244 248 256 262 265 258 255 256 258 261 265 269 271 274 277 281 286 292 296 297 296 294 290 287 287 286 288 291 289 287 289 292 293 294
235 236 239 240 241 242 244 242 241 244 246 247 247 247 247 247 246 247 246 250 257 261 263 264 258 254 259 259 261 263 265 265 269 274 275 280 286 293 292 293 294 297 295 291 288 287 286 286 287 288 290 293 293 289
237 239 240 240 240 240 241 241 240 243 245 248 249 249 249 250 250 251 261 263 263 261 260 254 254 256 258 259 251 257 264 267 269 272 274 282 292 293 290 291 300 295 293 295 295 295 293 289 289 289 293 292 288 288
240 240 239 237 237 237 240 241 243 250 251 252 254 254 255 257 258 258 258 258 257 256 253 252 254 251 251 258 262 263 266 266 267 271 280 288 291 287 288 292 300 298 295 292 300 298 291 289 290 291 288 286 288 290
238 239 241 243 244 245 246 246 250 255 256 256 253 252 258 258 256 255 254 251 253 254 252 251 247 252 251 249 257 257 259 266 273 279 281 289 284 284 290 294 299 300 298 295 301 295 291 292 291 289 290 293 293 293
243 241 241 242 243 242 241 243 244 246 248 250 252 254 254 254 253 249 248 245 244 247 250 252 253 255 260 258 258 261 266 274 275 280 281 276 276 280 288 294 294 293 293 299 299 287 287 286 289 295 298 300 299 297
249 249 247 245 244 243 242 239 239 242 245 248 249 250 247 246 240 238 236 239 242 246 250 249 252 254 256 255 260 265 271 274 271 267 268 270 274 284 293 294 286 290 295 300 289 281 285 289 296 301 302 302 300 297
251 247 245 243 242 242 240 235 233 232 236 245 249 247 244 242 240 232 234 231 234 236 253 236 247 260 263 263 264 265 262 262 262 264 268 273 285 287 285 282 287 294 297 290 287 284 287 292 299 304 303 302 302 301
254 251 248 246 241 235 229 229 224 225 221 236 241 246 248 248 246 240 237 237 232 233 228 239 245 247 245 251 252 252 256 259 263 269 280 281 277 278 279 283 286 294 292 286 287 289 292 297 303 302 302 304 305 305
261 261 257 252 245 239 236 231 226 225 228 231 235 240 245 244 246 254 254 249 238 241 244 241 242 248 250 255 258 260 266 272 275 274 273 271 271 272 276 283 290 290 285 287 289 292 297 301 301 300 302 303 304 304
263 259 253 250 243 240 236 238 237 235 235 239 242 245 246 248 248 241 238 239 235 233 243 249 256 260 261 260 260 264 268 269 270 272 273 273 276 282 285 287 285 283 285 287 291 295 297 297 295 298 296 292 281 269
263 254 245 242 240 237 234 233 230 238 242 240 241 249 248 249 254 250 247 249 253 254 255 259 259 258 258 257 256 261 265 269 271 269 274 277 281 280 279 282 285 286 288 290 292 292 291 289 289 286 273 253 241 230
250 236 232 227 228 239 248 237 225 224 225 238 248 246 222 244 257 260 256 253 249 252 251 253 258 259 258 257 260 264 266 265 270 270 271 270 274 279 285 289 291 290 289 288 286 281 278 278 275 259 236 234 231 227
228 221 213 204 209 218 238 242 229 225 232 248 219 208 242 256 248 254 251 248 243 242 244 249 244 253 259 255 256 260 262 265 268 269 272 276 281 285 288 289 290 289 283 275 268 264 261 259 252 238 230 232 236 236
215 202 208 214 215 217 218 214 223 227 220 217 226 241 242 250 255 259 263 259 255 251 248 247 252 253 254 257 258 262 265 266 272 274 279 284 286 287 288 287 288 286 273 258 251 249 248 248 244 239 237 242 246 248
222 213 219 226 233 233 231 230 233 236 234 239 242 249 252 252 253 247 247 245 247 247 249 251 253 255 258 261 263 267 271 274 277 279 281 283 282 277 271 274 280 275 267 260 254 252 252 254 254 253 252 252 255 257
230 231 237 244 247 246 246 246 244 240 239 241 244 244 244 247 248 249 253 258 263 265 265 265 265 264 266 269 271 270 269 271 273 273 270 267 264 266 270 271 271 269 268 264 262 260 259 259 261 261 262 262 263 265
244 248 251 253 254 255 254 253 250 248 246 247 248 249 250 251 254 256 259 263 265 264 265 267 269 267 267 267 266 262 260 255 250 252 258 265 269 272 273 275 276 275 274 272 270 269 269 269 269 269 268 269 269 269
263 260 259 256 253 251 252 250 249 248 248 250 252 254 255 254 253 253 255 260 264 265 266 267 264 261 259 258 253 247 245 249 254 262 268 270 271 272 273 275 276 275 275 274 274 274 274 274 274 273 274 274 275 275
274 269 271 271 266 263 257 254 250 250 252 251 253 254 252 251 248 252 264 270 267 265 260 257 256 253 250 249 250 253 258 265 270 272 274 277 279 278 277 279 280 278 276 274 274 274 274 274 274 275 276 276 276 276
267 271 273 277 277 274 269 264 263 262 261 260 260 261 260 258 257 258 261 265 264 258 257 256 256 257 258 261 265 269 273 277 280 281 282 282 282 282 282 281 280 279 279 279 278 278 278 277 277 277 277 277 278 279
263 264 267 269 269 268 268 267 265 264 264 264 265 265 266 267 266 264 263 263 264 263 264 265 267 269 272 274 276 277 278 278 279 280 280 280 280 280 280 280 280 280 280 279 279 278 278 278 278 278 278 279 280 280
Height
5412 5419 5424 5430 5436 5442 5447 5453 5458 5462 5466 5470 5474 5477 5480 5482 5483 5486 5489 5489 5494 5497 5501 5504 5506 5511 5510 5510 5512 5512 5513 5514 5513 5511 5512 5513 5512 5514 5512 5516 5516 5506 5507 5507 5495 5486 5477 5482 5478 5471 5465 5458 5457 5454
5396 5400 5405 5411 5417 5423 5428 5434 5440 5445 5450 5454 5459 5462 5465 5467 5469 5469 5475 5476 5476 5480 5487 5487 5492 5496 5497 5495 5493 5493 5497 5499 5494 5495 5497 5493 5492 5497 5494 5492 5501 5486 5495 5485 5480 5465 5462 5461 5455 5450 5447 5444 5442 5438
5379 5384 5389 5393 5399 5405 5410 5416 5421 5426 5432 5437 5441 5444 5448 5450 5453 5454 5457 5460 5459 5462 5467 5473 5484 5479 5478 5479 5476 5478 5482 5483 5479 5478 5476 5476 5472 5479 5473 5472 5474 5474 5479 5463 5454 5457 5451 5446 5442 5438 5433 5429 5428 5426
5361 5368 5373 5379 5383 5388 5393 5398 5404 5409 5414 5419 5423 5428 5432 5434 5437 5438 5440 5443 5444 5445 5442 5464 5463 5466 5465 5461 5460 5462 5464 5464 5462 5460 5457 5456 5457 5460 5452 5449 5446 5459 5455 5450 5436 5433 5430 5431 5429 5424 5420 5417 5415 5413
5344 5351 5357 5363 5368 5373 5378 5382 5387 5392 5397 5402 5406 5410 5414 5418 5421 5422 5422 5423 5428 5430 5426 5437 5442 5450 5448 5444 5445 5447 5447 5444 5444 5441 5437 5438 5441 5437 5432 5425 5425 5442 5435 5426 5417 5420 5416 5413 5412 5409 5403 5402 5401 5399
5327 5335 5341 5347 5353 5358 5363 5368 5373 5377 5382 5386 5390 5394 5398 5402 5404 5404 5403 5407 5414 5415 5410 5408 5418 5427 5429 5425 5428 5429 5430 5427 5423 5424 5421 5418 5426 5416 5407 5404 5414 5420 5417 5413 5406 5406 5403 5399 5398 5397 5391 5388 5386 5383
5311 5319 5326 5332 5338 5344 5349 5354 5359 5363 5367 5371 5375 5379 5382 5384 5386 5386 5389 5394 5400 5398 5394 5391 5388 5402 5411 5409 5412 5413 5410 5409 5408 5404 5401 5403 5404 5399 5392 5388 5400 5402 5400 5397 5394 5389 5387 5388 5383 5384 5379 5375 5372 5369
5296 5303 5310 5317 5324 5329 5335 5340 5345 5349 5353 5357 5360 5363 5366 5367 5368 5372 5379 5382 5383 5382 5382 5379 5376 5385 5394 5395 5397 5397 5393 5391 5389 5388 5389 5389 5387 5384 5376 5384 5388 5387 5386 5383 5381 5377 5373 5372 5369 5367 5364 5361 5358 5355
5282 5290 5297 5303 5309 5315 5321 5326 5331 5335 5339 5343 5345 5347 5348 5351 5356 5364 5363 5363 5367 5368 5366 5366 5368 5372 5376 5377 5379 5380 5378 5374 5374 5374 5377 5374 5372 5366 5375 5375 5373 5373 5370 5368 5366 5364 5362 5359 5355 5352 5350 5346 5342 5339
5270 5276 5283 5289 5295 5301 5307 5312 5317 5321 5324 5327 5329 5331 5334 5343 5344 5347 5346 5347 5348 5348 5347 5347 5358 5358 5363 5363 5364 5366 5364 5361 5358 5363 5363 5357 5358 5364 5365 5363 5359 5357 5355 5353 5351 5350 5348 5345 5342 5338 5335 5331 5327 5323
5257 5263 5269 5275 5282 5287 5293 5298 5303 5306 5308 5312 5315 5317 5323 5326 5326 5327 5328 5331 5333 5331 5331 5337 5345 5348 5349 5349 5350 5351 5348 5348 5345 5348 5345 5341 5345 5352 5353 5349 5346 5344 5341 5338 5336 5334 5332 5329 5326 5322 5318 5315 5311 5306
5245 5251 5257 5263 5268 5274 5279 5284 5288 5291 5296 5298 5301 5303 5308 5308 5310 5311 5310 5314 5314 5318 5322 5328 5333 5335 5335 5336 5337 5336 5336 5335 5331 5334 5329 5325 5334 5338 5336 5331 5328 5326 5324 5322 5319 5317 5314 5311 5308 5305 5302 5298 5294 5290
5233 5239 5244 5250 5255 5260 5265 5270 5274 5278 5279 5281 5283 5287 5290 5292 5291 5291 5294 5299 5306 5309 5314 5317 5320 5321 5321 5324 5323 5324 5321 5320 5320 5318 5315 5318 5325 5327 5321 5318 5315 5312 5310 5306 5304 5301 5299 5297 5293 5290 5285 5282 5278 5274
5223 5228 5233 5238 5243 5247 5252 5256 5260 5261 5263 5266 5268 5270 5270 5272 5276 5279 5289 5294 5296 5299 5303 5305 5305 5308 5308 5310 5312 5309 5307 5308 5305 5304 5305 5312 5315 5310 5306 5304 5302 5299 5296 5293 5290 5287 5284 5281 5277 5273 5269 5266 5263 5259
5212 5216 5220 5225 5230 5235 5239 5243 5246 5246 5248 5250 5251 5250 5254 5265 5267 5273 5276 5279 5282 5287 5289 5290 5294 5297 5296 5296 5295 5294 5291 5289 5290 5293 5300 5302 5299 5295 5292 5292 5289 5286 5283 5280 5276 5272 5268 5265 5262 5258 5255 5251 5247 5242
5200 5204 5208 5213 5217 5221 5225 5229 5230 5230 5230 5233 5235 5237 5242 5249 5254 5257 5261 5265 5269 5272 5275 5278 5280 5279 5279 5279 5280 5279 5279 5278 5283 5288 5290 5287 5283 5279 5278 5277 5275 5272 5269 5266 5263 5258 5254 5251 5248 5244 5240 5235 5229 5223
5190 5193 5196 5200 5203 5207 5210 5213 5214 5215 5216 5216 5221 5228 5232 5236 5239 5244 5247 5252 5254 5258 5261 5263 5263 5266 5266 5265 5265 5266 5267 5273 5274 5275 5274 5271 5269 5267 5266 5264 5261 5258 5255 5253 5248 5245 5241 5238 5234 5230 5223 5216 5208 5201
5179 5182 5184 5186 5189 5192 5196 5198 5200 5201 5201 5205 5210 5216 5219 5224 5227 5230 5233 5237 5242 5244 5248 5248 5250 5249 5252 5252 5253 5256 5259 5260 5261 5260 5257 5255 5254 5253 5252 5250 5248 5245 5242 5239 5235 5231 5228 5224 5219 5213 5205 5197 5188 5181
5170 5172 5173 5175 5177 5179 5181 5185 5187 5188 5190 5194 5198 5201 5205 5209 5214 5219 5223 5226 5230 5232 5235 5235 5236 5236 5239 5241 5243 5245 5246 5245 5244 5243 5243 5242 5242 5240 5239 5237 5234 5232 5228 5224 5221 5218 5214 5209 5203 5196 5187 5180 5173 5165
5163 5163 5165 5166 5168 5170 5171 5174 5177 5180 5183 5187 5188 5191 5193 5196 5199 5203 5208 5212 5218 5219 5220 5221 5223 5225 5228 5230 5230 5230 5230 5230 5231 5231 5230 5229 5228 5227 5225 5223 5220 5218 5214 5210 5207 5204 5200 5194 5188 5180 5174 5169 5162 5156
5156 5156 5157 5158 5159 5161 5163 5165 5168 5171 5173 5176 5179 5181 5183 5186 5190 5192 5194 5197 5201 5205 5207 5210 5212 5213 5215 5215 5216 5215 5217 5217 5217 5218 5217 5217 5215 5213 5211 5209 5206 5203 5201 5198 5194 5190 5185 5179 5174 5169 5165 5160 5157 5153
5149 5149 5149 5149 5151 5152 5154 5157 5159 5162 5165 5167 5170 5171 5174 5176 5179 5182 5184 5185 5188 5192 5193 5196 5199 5200 5201 5202 5203 5204 5204 5205 5205 5205 5205 5203 5201 5200 5198 5195 5192 5190 5187 5184 5180 5176 5171 5167 5164 5161 5158 5156 5154 5153
5142 5142 5142 5143 5145 5147 5150 5150 5152 5154 5157 5160 5162 5162 5164 5166 5168 5170 5171 5174 5177 5181 5183 5184 5186 5188 5190 5190 5191 5191 5192 5192 5192 5191 5191 5190 5189 5187 5185 5183 5180 5177 5173 5170 5166 5163 5160 5158 5155 5154 5153 5153 5153 5152
5137 5137 5138 5140 5142 5144 5144 5145 5146 5150 5153 5155 5156 5156 5159 5161 5162 5162 5163 5164 5167 5169 5171 5173 5174 5175 5175 5176 5176 5177 5177 5177 5177 5177 5178 5178 5177 5175 5172 5169 5165 5161 5158 5155 5153 5152 5151 5150 5149 5149 5150 5150 5150 5151
5134 5135 5137 5138 5140 5141 5141 5141 5143 5145 5148 5150 5152 5153 5155 5157 5158 5158 5159 5160 5160 5162 5164 5165 5165 5166 5166 5167 5167 5168 5168 5168 5168 5168 5168 5167 5165 5163 5159 5155 5151 5147 5144 5143 5144 5144 5144 5144 5145 5146 5146 5147 5147 5148
5131 5133 5135 5136 5137 5139 5140 5141 5141 5142 5144 5146 5148 5150 5151 5152 5154 5155 5155 5156 5157 5157 5158 5159 5159 5160 5160 5160 5160 5160 5160 5160 5160 5159 5158 5156 5153 5150 5147 5145 5142 5140 5138 5138 5139 5139 5140 5140 5141 5141 5142 5143 5143 5144
5129 5131 5132 5133 5134 5136 5137 5138 5140 5141 5142 5143 5144 5145 5146 5147 5148 5150 5150 5150 5151 5151 5151 5152 5152 5152 5152 5152 5151 5151 5150 5150 5149 5148 5147 5145 5143 5141 5141 5139 5138 5137 5137 5136 5136 5136 5137 5137 5137 5137 5138 5138 5139 5139
5128 5129 5130 5131 5132 5132 5133 5134 5135 5136 5137 5138 5140 5140 5141 5143 5144 5143 5143 5144 5143 5143 5143 5143 5143 5143 5142 5142 5141 5140 5140 5140 5140 5139 5139 5138 5137 5137 5136 5135 5135 5134 5134 5133 5133 5133 5133 5132 5132 5132 5133 5133 5133 5132
5126 5127 5127 5128 5128 5129 5130 5130 5131 5131 5132 5132 5133 5134 5134 5135 5135 5135 5136 5136 5136 5135 5135 5135 5134 5134 5133 5133 5133 5133 5133 5133 5134 5134 5133 5133 5133 5133 5132 5131 5130 5129 5129 5128 5128 5127 5127 5126 5126 5126 5125 5125 5124 5123
5125 5125 5125 5125 5125 5125 5126 5126 5127 5127 5127 5128 5128 5128 5128 5128 5128 5129 5129 5129 5129 5129 5128 5128 5127 5126 5126 5127 5127 5128 5128 5128 5128 5128 5128 5127 5127 5126 5125 5124 5123 5122 5121 5120 5120 5119 5118 5117 5117 5116 5115 5114 5113 5113
5123 5123 5123 5122 5122 5122 5122 5123 5123 5123 5124 5124 5124 5124 5124 5124 5124 5125 5124 5124 5123 5123 5122 5122 5122 5122 5122 5122 5122 5122 5122 5122 5122 5121 5120 5119 5118 5117 5116 5114 5113 5111 5110 5109 5108 5107 5107 5106 5104 5103 5102 5101 5099 5098
5121 5121 5121 5121 5121 5120 5120 5120 5119 5120 5120 5120 5119 5119 5119 5119 5119 5119 5119 5119 5118 5117 5117 5117 5117 5117 5117 5116 5116 5116 5115 5115 5114 5112 5111 5109 5108 5106 5104 5102 5101 5100 5098 5097 5096 5095 5093 5092 5091 5090 5088 5087 5085 5083
5118 5118 5118 5117 5117 5117 5117 5117 5116 5116 5115 5115 5114 5114 5113 5113 5112 5112 5112 5111 5111 5111 5111 5111 5110 5110 5109 5108 5107 5106 5105 5104 5102 5100 5099 5097 5095 5093 5092 5090 5089 5087 5086 5085 5083 5081 5080 5078 5077 5075 5072 5071 5069 5067